Powrót do katalogu

STARLINK-34060

AktywnyŁącznośćVLEO
NORAD 63815·PAYLOAD·🇺🇸 United States

Wystrzelony May 4, 2025 z Cape Canaveral Space Force Station

Loading…

Następne Przeloty (najbliższe 24 godziny)

TLE

ŚwieżeSource: CelesTrak SupGP

Epoka: Sep 14, 2026, 21:19 UTC

1 63815C 25092M   26257.88868056 -.00015894  00000+0 -57551-3 0  2573
2 63815  42.9994 183.7745 0001214 264.1389  84.4478 15.27595898    13

Śledź STARLINK-34060 w czasie rzeczywistym z AllMySat

Download on the App Store